Regional Weather Roundup
Issued by NWS

Home | Current Version | Previous Version | Graphics & Text | Print | Product List | Glossary On
Versions: 1 2 3 4 5 6 7 8 9 10 11 12 13 14 15 16 17 18 19 20 21 22 23 24 25 26 27 28 29 30 31 32 33 34 35 36 37 38 39 40 41 42 43 44 45 46 47 48 49 50
000
ASUS45 KBOU 071210
RWRCO

WEATHER ROUNDUP FOR COLORADO
NATIONAL WEATHER SERVICE DENVER/BOULDER CO
600 AM MDT TUE JUL 07 2015

NOTE: "FAIR" INDICATES FEW OR NO CLOUDS BELOW 12000 FEET WITH NO
SIGNIFICANT WEATHER AND/OR OBSTRUCTIONS TO VISIBILITY.

COZ001>005-013-030-031-071300-
...NORTHWEST COLORADO...

CITY           SKY/WX    TMP DP  RH WIND       PRES   REMARKS
CRAIG          NOT AVBL
HAYDEN         CLOUDY    55  48  76 SE6       30.21R
MEEKER         CLOUDY    58  53  84 N3        30.19S
MOUNT WERNER   NOT AVBL
STEAMBOAT SPGS CLOUDY    52  50  95 SW6       30.23R
WALDEN         CLOUDY    50  46  87 E6        30.30S
$$

COZ006>008-011-071300-
...WEST CENTRAL VALLEYS...

CITY           SKY/WX    TMP DP  RH WIND       PRES   REMARKS
GRAND JUNCTION CLOUDY    64  55  72 E3        30.10R
MONTROSE       CLOUDY    62  48  60 SE5       30.17R
EAGLE          MOCLDY    57  55  94 CALM      30.25S
RIFLE          CLOUDY    61  56  83 NE5       30.14S
DELTA          CLOUDY    61  50  66 CALM      30.13R
NUCLA          CLOUDY    57  48  72 CALM      30.22R
$$

COZ017>023-064>068-071300-
...SOUTHWEST COLORADO...

CITY           SKY/WX    TMP DP  RH WIND       PRES   REMARKS
DURANGO        CLOUDY    57  52  83 E3        30.25R
CORTEZ         CLOUDY    58  50  75 E6        30.19R
PAGOSA SPRINGS NOT AVBL
TELLURIDE      CLOUDY    56  45  65 CALM      30.38R
WOLF CREEK PAS NOT AVBL
$$

COZ009-010-012-014-032>034-037-058>063-071300-
...CENTRAL COLORADO...

CITY           SKY/WX    TMP DP  RH WIND       PRES   REMARKS
ASPEN          MOCLDY    52  47  83 SW3       30.28S
BUENA VISTA    CLOUDY    53  51  95 CALM      30.35S FOG
COPPER MTN     CLOUDY    45  39  81 S23       30.54S
BERTHOUD PASS  MOCLDY    36  28  75 W14       30.57S HAZE
COTTONWOOD PAS NOT AVBL
GUNNISON       PTCLDY    52  43  71 N3        30.33R
KREMMLING      CLOUDY    54  50  87 CALM      30.29F
LEADVILLE      CLOUDY    46  46 100 S6        30.42S
MONARCH PASS   FOG       41  41 100 SE3       30.66R VSB<1/4
SALIDA         CLOUDY    55  52  89 SE10G16   30.40S
SUNLIGHT       CLOUDY    50  45  81 CALM      30.48S
WILKERSON PASS FOG       41  41 100 SW5       30.55R VSB 1/4
$$

COZ069>075-071300-
...SAN LUIS VALLEY/SANGRE DE CRISTO MOUNTAINS...

CITY           SKY/WX    TMP DP  RH WIND       PRES   REMARKS
ALAMOSA        CLOUDY    54  52  93 CALM      30.31S
LA VETA PASS   HVY SNOW  43  41  93 MISG      30.47S VSB<1/4
SAGUACHE       CLOUDY    54  54 100 CALM      30.34R
$$

COZ035-036-038>040-071300-
...NORTHERN COLORADO FRONT RANGE...

CITY           SKY/WX    TMP DP  RH WIND       PRES   REMARKS
DENVER INTL AP CLOUDY    58  51  78 SE12      30.21F HAZE
DMNS CITY PARK   N/A     59  52  79 E8        30.21S
AURORA         MOCLDY    57  52  83 S10       30.22F
FRONT RANGE AP CLOUDY    55  50  82 MISG      30.23F HAZE
ERIE MUNI ARPT CLOUDY    59  57  96 CALM      30.21S FOG
BOULDER MUN AP CLOUDY    57  57 100 CALM      30.21F FOG
CENTENNIAL     CLOUDY    57  52  83 S16       30.22F HAZE
BROOMFIELD     LGT RAIN  59  55  88 CALM      30.23S
FORT COLLINS   CLOUDY    59  54  82 S3        30.23S
LONGMONT       CLOUDY    61  58  91 CALM      30.22F FOG
$$

COZ041-046-047-076>085-087-088-071300-
...PIKES PEAK/PALMER DIVIDE AND SOUTHERN FOOTHILLS...

CITY           SKY/WX    TMP DP  RH WIND       PRES   REMARKS
COLO. SPRINGS  FOG       54  53  97 S6        30.30F VSB 1
A. F. ACADEMY  CLOUDY    53  53 100 SE9       30.30S FOG
ELLICOTT       MOCLDY   N/A N/A N/A S6        30.29S FOG
FALCON         CLOUDY    51  51  98 S6        30.33S FOG
FORT CARSON    CLOUDY    55  55  99 SW5       30.29R FOG
LIMON          PTCLDY    50  49  96 SE5       30.27S FOG
MONUMENT HILL  CLOUDY    50  48  93 S13       30.31S FOG
TRINIDAD       CLOUDY    58  55  90 CALM      30.27S FOG
$$

COZ042>045-048>051-090-091-071300-
...NORTHEAST COLORADO...

CITY           SKY/WX    TMP DP  RH WIND       PRES   REMARKS
GREELEY ARPT   CLOUDY    61  52  72 SE7       30.22R
AKRON          CLOUDY    57  51  80 S8        30.23F HAZE
BURLINGTON     CLEAR     53  49  86 SE3       30.24R FOG
WRAY           CLEAR     51  51 100 CALM      30.23R FOG
STERLING       MOCLDY    55  54  94 CALM        N/A  FOG
HOLYOKE          N/A     55  54  94 S3        30.23S FOG
FORT MORGAN    MOCLDY    57  50  75 SE7       30.23S
$$

COZ086-089-092>099-071300-
...SOUTHEAST COLORADO...

CITY           SKY/WX    TMP DP  RH WIND       PRES   REMARKS
PUEBLO         CLOUDY    61  55  81 E5        30.24R HAZE
LA JUNTA       CLOUDY    60  52  74 E3        30.23R HAZE
LAMAR          PTCLDY    57  52  83 CALM      30.20R HAZE
SPRINGFIELD      N/A     55  52  89 N7        30.23R
$$


USA.gov is the U.S. government's official web portal to all federal, state and local government web resources and services.